Location: Bacharowice
(49.9333°N, 19.5833°E)
Time: 09:21:24
(UTC+00:00)

Cosmos 2218 Rocket - Pass Details

Date: 11 May 2021
Orbit: 957 x 1005 km, 82.9° (Epoch: 21 June)

Event Time Altitude Azimuth Distance (km) Brightness Sun altitude
Rises 22:07:08 0° 347° (NNW) 3,687 8.6 -21.6°
Reaches altitude 10° 22:09:41 10° 343° (NNW) 2,742 7.5 -21.7°
Maximum altitude 22:15:47 54° 268° (W) 1,184 4.4 -21.8°
Enters shadow 22:18:16 34° 211° (SSW) 1,562 4.6 -21.8°
